Time,TemperatureF,DewpointF,PressureIn,WindDirection,WindDirectionDegrees,WindSpeedMPH,WindSpeedGustMPH,Humidity,HourlyPrecipIn,Conditions,Clouds,dailyrainin,SoftwareType,DateUTC
2014-12-25 00:00:00,39.9,37.8,29.69,West,270,0.7,3.8,92,0.00,,,0.10,open2300-1.11,2014-12-24 23:00:00,
2014-12-25 00:10:00,39.9,37.8,29.70,WNW,292,1.8,4.0,92,0.02,,,0.12,open2300-1.11,2014-12-24 23:10:00,
2014-12-25 00:20:00,39.9,38.0,29.70,WNW,292,2.2,4.5,93,0.02,,,0.12,open2300-1.11,2014-12-24 23:20:00,
2014-12-25 00:30:00,39.9,38.0,29.70,West,270,1.6,3.1,93,0.02,,,0.12,open2300-1.11,2014-12-24 23:30:00,
2014-12-25 00:40:00,39.7,37.8,29.70,WSW,247,1.8,3.1,93,0.02,,,0.12,open2300-1.11,2014-12-24 23:40:00,
2014-12-25 00:50:00,39.6,37.7,29.70,WNW,292,4.0,4.0,93,0.02,,,0.12,open2300-1.11,2014-12-24 23:50:00,
2014-12-25 01:00:00,39.6,37.7,29.71,West,270,2.0,5.1,93,0.02,,,0.12,open2300-1.11,2014-12-25 00:00:00,
2014-12-25 01:10:00,39.4,37.5,29.71,West,270,2.2,3.4,93,0.00,,,0.12,open2300-1.11,2014-12-25 00:10:00,
2014-12-25 01:20:00,39.4,37.5,29.71,West,270,2.0,2.2,93,0.00,,,0.12,open2300-1.11,2014-12-25 00:20:00,
2014-12-25 01:30:00,39.4,37.5,29.71,WSW,247,3.4,5.1,93,0.00,,,0.12,open2300-1.11,2014-12-25 00:30:00,
2014-12-25 01:40:00,39.4,37.5,29.71,WNW,292,0.0,3.4,93,0.00,,,0.12,open2300-1.11,2014-12-25 00:40:00,
2014-12-25 01:50:00,39.4,37.5,29.72,West,270,0.0,2.9,93,0.00,,,0.12,open2300-1.11,2014-12-25 00:50:00,
2014-12-25 02:03:00,39.0,37.1,29.72,West,270,2.9,5.6,93,0.00,,,0.12,open2300-1.11,2014-12-25 01:03:00,
2014-12-25 02:10:00,39.2,37.3,29.72,West,270,2.2,4.9,93,0.00,,,0.12,open2300-1.11,2014-12-25 01:10:00,
2014-12-25 02:20:00,39.2,37.3,29.72,WSW,247,4.0,4.0,93,0.00,,,0.12,open2300-1.11,2014-12-25 01:20:00,
2014-12-25 02:30:00,39.4,37.5,29.72,WNW,292,6.5,7.4,93,0.00,,,0.12,open2300-1.11,2014-12-25 01:30:00,
2014-12-25 02:40:00,39.4,37.5,29.72,WNW,292,1.3,6.7,93,0.00,,,0.12,open2300-1.11,2014-12-25 01:40:00,
2014-12-25 02:50:00,39.2,37.3,29.72,WSW,247,4.5,5.4,93,0.00,,,0.12,open2300-1.11,2014-12-25 01:50:00,
2014-12-25 03:00:00,39.0,37.1,29.72,WSW,247,3.8,6.9,93,0.00,,,0.10,open2300-1.11,2014-12-25 02:00:00,
2014-12-25 03:10:00,39.0,37.1,29.73,West,270,5.8,6.7,93,0.00,,,0.10,open2300-1.11,2014-12-25 02:10:00,
2014-12-25 03:20:00,38.8,37.0,29.73,West,270,3.4,5.8,93,0.00,,,0.10,open2300-1.11,2014-12-25 02:20:00,
2014-12-25 03:30:00,38.8,37.0,29.73,SW,225,4.9,5.4,93,0.00,,,0.10,open2300-1.11,2014-12-25 02:30:00,
2014-12-25 03:40:00,39.0,37.1,29.74,West,270,2.5,4.9,93,0.00,,,0.10,open2300-1.11,2014-12-25 02:40:00,
2014-12-25 03:50:00,39.0,37.1,29.74,SW,225,0.0,10.3,93,0.00,,,0.10,open2300-1.11,2014-12-25 02:50:00,
2014-12-25 04:00:00,39.0,37.1,29.73,West,270,4.9,6.7,93,0.00,,,0.10,open2300-1.11,2014-12-25 03:00:00,
2014-12-25 04:10:00,38.8,37.0,29.73,WNW,292,1.6,5.8,93,0.00,,,0.10,open2300-1.11,2014-12-25 03:10:00,
2014-12-25 04:20:00,38.8,37.0,29.73,West,270,4.9,9.6,93,0.00,,,0.10,open2300-1.11,2014-12-25 03:20:00,
2014-12-25 04:30:00,38.8,37.0,29.73,West,270,9.2,9.2,93,0.00,,,0.10,open2300-1.11,2014-12-25 03:30:00,
2014-12-25 04:40:00,38.8,37.0,29.73,West,270,5.6,9.2,93,0.00,,,0.10,open2300-1.11,2014-12-25 03:40:00,
2014-12-25 04:50:00,38.8,37.0,29.73,NW,315,10.7,10.7,93,0.00,,,0.10,open2300-1.11,2014-12-25 03:50:00,
2014-12-25 05:00:00,39.0,37.1,29.73,West,270,4.7,10.7,93,0.00,,,0.10,open2300-1.11,2014-12-25 04:00:00,